NOAA 16 DEB, 41302

Orbit data source: Space-Track

NOAA 16 DEB, 41302 is space debris in SSO originally from a launch on Thu, 21 Sep 2000 UTC launched from the Air Force Western Test Range (AFWTR). Debris objects in space refer to the collection of defunct objects orbiting the Earth. Examples of debris include non-operational satellites, rocket bodies, and fragments generated from explosions, collisions, or faulty payload assembly.

Loading next visibility...
Identifier
41302, 2000-055HE
Orbit
SSO
Country
Flag of USUS
Related business
Manufacturer
Unknown
Mission
Spacecraft
Bus & Motor
Unknown
Mass
Unknown
Launch date (UTC)
2000-09-21 (26 years ago)
Launch vehicle
Unknown
Launch site
Air Force Western Test Range (AFWTR)
Object type
Payload
Rocket body
Debris
Shape & HBR
Unknown shape, 0.1 m
Radar Cross Section
Medium (>0.1 m² and <1 m²)

Expand to show TLE details & history
Last TLE update: 14 hours ago

TLE from 14 hours ago
0 NOAA 16 DEB
1 41302U 00055HE  26255.62230996  .00002315  00000-0  98518-3 0  9992
2 41302  98.7083 317.0983 0017626 311.1016  48.8642 14.26097653551470
Epoch: 2026-09-12T14:56Z
TLE epoch observation values (Epoch: 2026-09-12T14:56:07.580Z)
Latitude
0.00005°
Longitude
101.43804°
Altitude
799.41 km
Speed
7.458 km/s
True Right ascension
21h 08m 23s
True Declination
0° 00' 00"
Sunlit
Object was in full shadow at epoch
Visualization orbit readout
Latitude
Unknown
Longitude
Unknown
Altitude
Unknown
Speed
Unknown
Apparent Right ascension
Unknown
Apparent Declination
Unknown
Sunlit
N/A
Visualization observer readout
Local Sidereal Time
21:15:09
Azimuth
Unknown
Elevation
Unknown
Doppler factor
Unknown
Orbital elements
Apogee altitude
814.611 km
Perigee altitude
789.299 km
Semi-major axis
7,180.092 km
Eccentricity
0.00176
Inclination
98.7083°
RAAN
317.0983°
Arg. of periapsis
311.1016°
True anomaly
49.01654°
Mean anomaly
48.8642°
Eccentric anomaly
48.94035°
Mean motion
3.56737 °/min
Orbital period
100.91 mins
BSTAR
0.00098518
Loading maneuver chart data...
Computing Atmospheric mass density...
Loading historical data...
Loading historical data...
Loading historical data...
Loading historical data...
Loading historical data...
Loading historical data...
Loading historical data...

Documentation

Showing up to 5 results
|